8,
Avoca, PA
on Tuesday, December 18, 2012

Tuesday
Previous Day Next Day
Daily Summary
 ActualAverageRecord
Temperature
Mean Temperature °F 30°F  
Max Temperature 48°F 37°F 58°F (1928)
Min Temperature 38°F 23°F -6°F (1919)
Degree Days
Heating Degree Days 22 35  
Month to date heating degree days 444 583  
Since 1 July heating degree days 1671 1896  
Cooling Degree Days 0 0  
Month to date cooling degree days 0 0  
Year to date cooling degree days 864 580  
Moisture
Dew Point 39°F   
Average Humidity 85    
Maximum Humidity 100    
Minimum Humidity 70    
Precipitation
Precipitation 0.10 in 0.08 in 0.93 in (1961)
Month to date precipitation 1.49 1.66  
Year to date precipitation 35.66 37.24  
Wind
Wind Speed 8 mph   
Max Wind Speed 21 mph   
Max Gust Speed 29 mph   
Visibility 8 miles   
Events Rain   

Key: T is trace of precipitation, MM is missing value
Source: NWS Daily Summary
Time(EST)TemperatureDew PointHumidity Pressure Visibility Wind DirectionWind SpeedGust SpeedPrecipitationEvents Conditions
12:02 AM 39.2°F 39.2°F 100% 29.56 in 5.0 miles NE 6.9 mph - 0.02 in Rain Light Rain
12:54 AM 42.1°F 39.0°F 89% 29.52 in 10.0 miles NNE 10.4 mph - 0.02 in   Overcast
1:18 AM 42.8°F 39.2°F 87% 29.51 in 10.0 miles North 6.9 mph - 0.01 in Rain Light Rain
1:54 AM 44.1°F 39.9°F 85% 29.52 in 9.0 miles NE 5.8 mph - 0.01 in Rain Light Rain
2:14 AM 42.8°F 41.0°F 93% 29.52 in 4.0 miles NE 5.8 mph - 0.01 in Rain Light Rain
2:54 AM 42.1°F 39.9°F 92% 29.51 in 8.0 miles NE 5.8 mph - 0.02 in Rain Light Rain
3:54 AM 43.0°F 39.9°F 89% 29.50 in 10.0 miles ENE 4.6 mph - 0.00 in   Overcast
4:15 AM 42.8°F 39.2°F 87% 29.49 in 10.0 miles ENE 4.6 mph - N/A   Overcast
4:54 AM 42.1°F 39.9°F 92% 29.49 in 10.0 miles Calm Calm - N/A   Overcast
5:54 AM 42.1°F 39.9°F 92% 29.50 in 10.0 miles Calm Calm - N/A   Overcast
6:54 AM 42.1°F 39.9°F 92% 29.50 in 10.0 miles Calm Calm - N/A   Overcast
7:29 AM 42.8°F 41.0°F 93% 29.49 in 2.5 miles Calm Calm - N/A   Overcast
7:54 AM 42.1°F 41.0°F 96% 29.50 in 2.0 miles Calm Calm - N/A   Overcast
8:03 AM 42.8°F 41.0°F 93% 29.49 in 1.8 miles Calm Calm - N/A   Overcast
8:15 AM 42.8°F 41.0°F 93% 29.49 in 2.0 miles Calm Calm - 0.00 in   Overcast
8:23 AM 42.8°F 41.0°F 93% 29.49 in 1.0 miles SW 3.5 mph - 0.00 in   Overcast
8:31 AM 42.8°F 41.0°F 93% 29.50 in 0.8 miles SW 3.5 mph - 0.00 in   Overcast
8:54 AM 43.0°F 42.1°F 97% 29.50 in 1.2 miles SW 6.9 mph - 0.00 in   Overcast
9:06 AM 44.6°F 42.8°F 93% 29.49 in 2.5 miles SW 9.2 mph - N/A   Overcast
9:33 AM 44.6°F 42.8°F 93% 29.50 in 3.0 miles SW 8.1 mph - N/A   Overcast
9:54 AM 45.0°F 43.0°F 93% 29.50 in 4.0 miles SW 5.8 mph - N/A   Overcast
10:02 AM 44.6°F 42.8°F 93% 29.49 in 4.0 miles WSW 8.1 mph - N/A   Overcast
10:54 AM 45.0°F 43.0°F 93% 29.49 in 5.0 miles SW 5.8 mph - N/A   Overcast
11:46 AM 46.4°F 42.8°F 87% 29.47 in 8.0 miles SW 11.5 mph - N/A   Overcast
11:54 AM 46.9°F 43.0°F 86% 29.47 in 8.0 miles SW 12.7 mph - N/A   Overcast
12:54 PM 48.0°F 43.0°F 83% 29.46 in 9.0 miles SW 9.2 mph - 0.00 in   Overcast
1:13 PM 46.4°F 42.8°F 87% 29.45 in 9.0 miles WSW 9.2 mph - N/A   Overcast
1:54 PM 46.0°F 42.1°F 86% 29.46 in 10.0 miles SW 12.7 mph 20.7 mph 0.00 in   Overcast
2:09 PM 46.4°F 41.0°F 81% 29.46 in 10.0 miles WSW 13.8 mph 21.9 mph N/A   Overcast
2:54 PM 45.0°F 39.9°F 82% 29.48 in 10.0 miles WSW 10.4 mph - N/A   Overcast
3:16 PM 44.6°F 39.2°F 81% 29.49 in 5.0 miles SW 10.4 mph 19.6 mph 0.00 in Rain Light Rain
3:54 PM 43.0°F 39.9°F 89% 29.52 in 10.0 miles WNW 9.2 mph - 0.01 in Rain Light Rain
4:03 PM 42.8°F 39.2°F 87% 29.52 in 10.0 miles WNW 5.8 mph 17.3 mph N/A   Overcast
4:12 PM 42.8°F 37.4°F 81% 29.53 in 10.0 miles NW 13.8 mph 21.9 mph 0.00 in Rain Light Rain
4:25 PM 42.8°F 35.6°F 76% 29.54 in 10.0 miles NW 12.7 mph 25.3 mph 0.00 in Rain Light Rain
4:35 PM 42.8°F 35.6°F 76% 29.55 in 10.0 miles WNW 13.8 mph 23.0 mph 0.00 in Rain Light Rain
4:54 PM 42.1°F 35.1°F 76% 29.57 in 10.0 miles WNW 13.8 mph 24.2 mph 0.00 in Rain Light Rain
5:54 PM 39.9°F 36.0°F 86% 29.60 in 8.0 miles West 8.1 mph - 0.03 in Rain Light Rain
6:54 PM 39.0°F 36.0°F 89% 29.63 in 10.0 miles SW 6.9 mph - 0.02 in Rain Light Rain
7:41 PM 39.2°F 35.6°F 87% 29.63 in 10.0 miles SW 4.6 mph - 0.00 in   Overcast
7:54 PM 39.9°F 35.1°F 83% 29.65 in 10.0 miles West 5.8 mph - 0.00 in   Overcast
8:54 PM 39.9°F 32.0°F 73% 29.66 in 10.0 miles WNW 15.0 mph 21.9 mph N/A   Overcast
9:54 PM 39.9°F 32.0°F 73% 29.66 in 10.0 miles West 12.7 mph - N/A   Overcast
10:54 PM 39.9°F 30.9°F 70% 29.67 in 10.0 miles West 9.2 mph - N/A   Overcast
11:54 PM 37.9°F 32.0°F 79% 29.68 in 10.0 miles WSW 10.4 mph - N/A   Overcast
Astronomy
Sunrise:07:24 AM (EST) Moon Rise:10:59 AM (EST)12/18
Sunset:04:35 PM (EST) Moon Set:11:02 PM (EST)12/18
Moon Phase
Dec. 18 Dec. 20 Dec. 28 Jan. 04 Jan. 11

Copyright © 2014 The Weather Underground, Inc.
8,